Location: Springville
(37.3745°N, 89.2676°W)
Time: 14:45:03
(UTC+00:00)

Cosmos 1302 Rocket - Pass Details

Date: 29 October 2020
Orbit: 756 x 776 km, 74.0° (Epoch: 03 December)

Event Time Altitude Azimuth Distance (km) Brightness Sun altitude
Rises 23:33:28 0° 202° (SSW) 3,219 7.8 -6.9°
Reaches altitude 10° 23:35:50 10° 204° (SSW) 2,300 7.0 -7.4°
Maximum altitude 23:41:02 71° 289° (WNW) 814 4.4 -8.4°
Drops below altitude 10° 23:46:19 10° 14° (NNE) 2,326 6.3 -9.4°
Sets 23:48:44 0° 16° (NNE) 3,259 7.0 -9.9°
